Regional Weather Roundup
Issued by NWS

Home | Current Version | Previous Version | Text Only | Print | Product List | Glossary Off
Versions: 1 2 3 4 5 6 7 8 9 10 11 12 13 14 15 16 17 18 19 20 21 22 23 24 25 26 27 28 29 30 31 32 33 34 35 36 37 38 39 40 41 42 43 44 45 46 47 48 49 50

000
ASUS43 KBIS 150702
RWRND

NORTH DAKOTA REGIONAL WEATHER ROUNDUP
NATIONAL WEATHER SERVICE BISMARCK ND
100 AM CST FRI DEC 15 2017

NOTE: "FAIR" INDICATES FEW OR NO CLOUDS BELOW 12,000 FEET WITH NO
SIGNIFICANT WEATHER AND/OR OBSTRUCTIONS TO VISIBILITY.


NDZ001>003-009>011-017-150800-
NORTHWEST NORTH DAKOTA

CITY           SKY/WX    TMP DP  RH WIND       PRES   REMARKS
WILLISTON      CLOUDY    27  21  78 SW6       29.93F
MINOT          CLOUDY    31  22  69 W7        29.92F
MINOT AFB      CLOUDY    29  22  77 W6        29.91F
$$

NDZ018>021-031>035-040>046-150800-
SOUTHWEST NORTH DAKOTA

CITY           SKY/WX    TMP DP  RH WIND       PRES   REMARKS
BISMARCK       CLOUDY    33  25  72 W7        29.96F
DICKINSON      CLOUDY    26  20  77 W8        29.93F WCI  18
GARRISON         N/A     29  22  75 NW7       29.94F
HETTINGER ARPT CLEAR     21  17  84 CALM      29.99F
$$

NDZ004>008-012>016-024-026-027-054-150800-
NORTHEAST NORTH DAKOTA

CITY           SKY/WX    TMP DP  RH WIND       PRES   REMARKS
GRAND FORKS    CLOUDY    19  16  88 NE9       29.98F WCI   8
GRND FRKS AFB  CLOUDY    19  14  79 NE13      29.97F WCI   7
DEVILS LAKE    CLOUDY    22  19  89 E5        29.94F WCI  16
$$

NDZ022-023-025-028>030-036>039-047>053-150800-
SOUTHEAST NORTH DAKOTA

CITY           SKY/WX    TMP DP  RH WIND       PRES   REMARKS
FARGO          CLOUDY    20  18  92 NE5       29.97S WCI  13
JAMESTOWN      CLOUDY    30  25  81 W8        29.92F
$$





USA.gov is the U.S. government's official web portal to all federal, state and local government web resources and services.